DW8425 Weather Reports


Display with metric or nautical units.
time (UTC)temp
F
wind
direction
speed
MPH
gust
MPH
rain 1hr
in
rain 24hr
in
rain mn
in
humidity
%
barometer
mb
20260904010050 57 113 3.0 12.0 0.00 0.02 0.02 50 1005.0
20260904004549 57 130 5.0 11.0 0.00 0.02 0.02 50 1005.0
20260904003048 58 136 6.0 15.0 0.00 0.02 0.02 49 1005.0
20260904001604 58 153 5.0 14.0 0.00 0.02 0.02 50 1005.1
20260904000046 58 136 7.0 17.0 0.00 0.02 0.02 51 1005.3
20260903234545 58 133 5.0 13.0 0.00 0.02 0.02 52 1005.5
20260903233046 58 153 8.0 16.0 0.00 0.02 0.02 49 1005.4
20260903231544 58 149 6.0 13.0 0.00 0.02 0.02 50 1005.4
20260903230042 58 114 7.0 15.0 0.00 0.02 0.02 52 1005.7
20260903224547 58 132 7.0 17.0 0.00 0.02 0.02 53 1005.8
20260903223043 58 171 6.0 16.0 0.00 0.02 0.02 53 1006.0
20260903221538 59 161 7.0 15.0 0.00 0.02 0.02 50 1006.2
20260903220036 59 131 6.0 14.0 0.00 0.02 0.02 50 1006.3
20260903214538 58 139 10.0 17.0 0.00 0.02 0.02 52 1006.5
20260903213046 58 128 8.0 18.0 0.00 0.02 0.02 54 1006.7
20260903211531 57 150 8.0 14.0 0.00 0.02 0.02 52 1007.0
20260903210029 57 136 5.0 14.0 0.00 0.02 0.02 55 1007.0
20260903204526 57 165 6.0 13.0 0.00 0.02 0.02 56 1007.0
20260903203024 56 122 8.0 15.0 0.00 0.02 0.02 57 1007.4
20260903201519 55 115 5.0 14.0 0.00 0.02 0.02 61 1007.5
20260903200018 54 153 8.0 13.0 0.00 0.02 0.02 60 1007.7
20260903194516 53 130 8.0 15.0 0.00 0.02 0.02 63 1007.8
20260903193018 53 145 8.0 15.0 0.00 0.02 0.02 64 1008.0
20260903191523 52 154 7.0 17.0 0.00 0.02 0.02 66 1007.9
20260903190015 52 147 9.0 15.0 0.00 0.02 0.02 66 1008.0
20260903184512 52 159 6.0 14.0 0.00 0.02 0.02 68 1007.9
20260903183020 51 156 8.0 15.0 0.00 0.02 0.02 68 1008.1
20260903181508 50 167 9.0 16.0 0.00 0.02 0.02 69 1008.3
20260903180010 50 156 10.0 18.0 0.00 0.02 0.02 70 1008.3
20260903174505 50 154 6.0 13.0 0.00 0.02 0.02 70 1008.3
20260903173003 50 148 5.0 14.0 0.00 0.02 0.02 72 1008.6
20260903171501 49 173 7.0 14.0 0.00 0.02 0.02 73 1008.7
20260903170059 48 175 4.0 15.0 0.00 0.02 0.02 74 1008.8
20260903164557 48 141 7.0 12.0 0.00 0.02 0.02 77 1009.0
20260903163126 47 152 6.0 12.0 0.00 0.02 0.02 80 1008.7
20260903161552 45 149 3.0 11.0 0.00 0.02 0.02 82 1008.8
20260903160051 45 167 3.0 11.0 0.00 0.02 0.02 81 1008.9
20260903154551 45 147 3.0 8.0 0.00 0.09 0.02 81 1008.8
20260903153050 45 178 4.0 11.0 0.00 0.09 0.02 81 1008.9
20260903151548 45 138 5.0 9.0 0.00 0.09 0.02 82 1009.0
20260903150048 44 150 4.0 12.0 0.00 0.09 0.02 81 1008.9
20260903144549 44 168 4.0 9.0 0.01 0.09 0.02 83 1008.9
20260903143046 43 143 2.0 5.0 0.01 0.09 0.02 86 1008.9
20260903141542 43 134 2.0 6.0 0.01 0.09 0.02 86 1008.8
20260903140041 43 139 0.0 7.0 0.01 0.09 0.02 86 1008.7
20260903134538 43 169 2.0 7.0 0.00 0.08 0.01 84 1008.8
20260903133040 43 142 2.0 8.0 0.00 0.08 0.01 83 1008.5
20260903131535 42 157 1.0 4.0 0.01 0.08 0.01 84 1008.3
20260903130034 42 144 0.0 3.0 0.01 0.08 0.01 84 1008.2
20260903124534 43 149 2.0 5.0 0.01 0.08 0.01 82 1008.3
20260903123031 43 160 1.0 6.0 0.01 0.08 0.01 81 1008.1
20260903121535 44 146 4.0 6.0 0.00 0.07 0.00 76 1008.3
20260903120038 44 153 1.0 8.0 0.00 0.07 0.00 74 1008.0
20260903114526 44 161 0.0 4.0 0.00 0.07 0.00 74 1008.2
20260903113025 45 141 2.0 9.0 0.00 0.07 0.00 72 1008.3
20260903111523 45 150 3.0 6.0 0.00 0.07 0.00 69 1008.4
20260903110022 46 137 4.0 9.0 0.00 0.07 0.00 63 1008.4
20260903104520 46 158 0.0 4.0 0.00 0.07 0.00 64 1008.5
20260903103020 46 152 0.0 4.0 0.00 0.07 0.00 63 1008.4
20260903101516 45 163 1.0 6.0 0.00 0.07 0.00 63 1008.3
20260903100014 45 142 0.0 1.0 0.00 0.07 0.00 61 1008.1
20260903094512 44 327 0.0 1.0 0.00 0.07 0.00 62 1008.1
20260903093012 44 327 0.0 2.0 0.00 0.07 0.00 61 1008.0
20260903091513 43 327 0.0 0.0 0.00 0.07 0.00 61 1007.9
20260903090010 43 327 0.0 0.0 0.00 0.07 0.00 61 1007.8
20260903084509 44 327 0.0 1.0 0.00 0.07 0.00 59 1007.8
20260903083010 44 327 0.0 0.0 0.00 0.07 0.00 59 1008.0
20260903081508 44 327 0.0 0.0 0.00 0.07 0.00 59 1007.9
20260903080008 43 327 0.0 1.0 0.00 0.07 0.00 58 1008.0
20260903074507 43 327 0.0 2.0 0.00 0.07 0.00 59 1007.9
20260903073004 43 28 0.0 1.0 0.00 0.07 0.00 58 1007.8
20260903071504 43 355 0.0 1.0 0.00 0.07 0.00 58 1007.7
20260903070013 43 355 0.0 3.0 0.00 0.07 0.00 58 1007.7
20260903064502 43 105 0.0 0.0 0.00 0.07 0.00 57 1007.8
20260903063108 43 109 0.0 1.0 0.00 0.07 0.00 56 1007.7
20260903061608 44 109 0.0 0.0 0.00 0.07 0.00 54 1007.8
20260903060054 44 123 0.0 1.0 0.00 0.07 0.00 53 1007.8
20260903054601 45 117 0.0 1.0 0.00 0.07 0.07 53 1008.0
20260903053056 46 163 0.0 1.0 0.00 0.07 0.07 52 1008.4
20260903051555 46 169 0.0 2.0 0.00 0.07 0.07 51 1008.5
20260903050053 47 143 0.0 2.0 0.00 0.07 0.07 50 1008.6
20260903044557 47 136 0.0 2.0 0.00 0.07 0.07 50 1008.6
20260903043052 47 146 0.0 2.0 0.00 0.07 0.07 50 1008.6
20260903041608 48 146 0.0 1.0 0.00 0.07 0.07 48 1008.6
20260903040051 48 146 0.0 1.0 0.00 0.07 0.07 47 1008.5
20260903034550 48 146 0.0 1.0 0.00 0.07 0.07 47 1008.4
20260903033049 49 146 0.0 0.0 0.00 0.07 0.07 46 1008.4
20260903031548 50 146 0.0 1.0 0.00 0.07 0.07 43 1008.2
20260903030047 51 146 0.0 1.0 0.00 0.07 0.07 40 1008.3
20260903024546 52 146 1.0 4.0 0.00 0.07 0.07 39 1008.0
20260903023046 53 167 1.0 5.0 0.00 0.07 0.07 39 1007.8
20260903021544 54 147 2.0 6.0 0.00 0.07 0.07 36 1007.7
20260903020050 55 151 5.0 12.0 0.00 0.07 0.07 35 1007.6
20260903014602 56 158 2.0 7.0 0.00 0.11 0.07 36 1007.6
20260903013051 56 150 3.0 8.0 0.00 0.11 0.07 35 1007.5
20260903011607 57 211 4.0 6.0 0.00 0.11 0.07 33 1007.5